QPF
0.01 0.01 0.00 0.01 0.01 0.00 0.01 0.00 0.01 0.00 0.00 0.00 0.00 0.00 0.00 0.00 0.00 0.00 0.00 0.00 0.00 0.00 0.00 0.00 0.00 0.00 0.00 0.00 0.00 0.00 0.00 0.00 0.00 0.00 0.00 0.00 0.00 0.00 0.00 0.00 0.00 0.00 0.00 0.00 0.00 0.00 0.00
0.00 0.00 0.00 0.00 0.01 0.01 0.00 0.01 0.00 0.01 0.00 0.00 0.00 0.00 0.00 0.00 0.00 0.00 0.00 0.00 0.00 0.00 0.00 0.00 0.00 0.00 0.00 0.00 0.00 0.00 0.00 0.00 0.00 0.00 0.00 0.00 0.00 0.00 0.00 0.00 0.00 0.00 0.00 0.00 0.00 0.00 0.00
0.01 0.00 0.00 0.00 0.00 0.01 0.01 0.00 0.01 0.01 0.01 0.00 0.00 0.00 0.00 0.00 0.00 0.00 0.00 0.00 0.00 0.00 0.00 0.00 0.00 0.00 0.00 0.00 0.00 0.00 0.00 0.00 0.00 0.00 0.00 0.00 0.00 0.00 0.00 0.00 0.00 0.00 0.00 0.00 0.00 0.00 0.00
0.01 0.00 0.01 0.00 0.00 0.00 0.01 0.01 0.01 0.01 0.01 0.01 0.00 0.00 0.00 0.00 0.00 0.00 0.00 0.00 0.00 0.00 0.00 0.00 0.00 0.00 0.00 0.00 0.00 0.00 0.00 0.00 0.00 0.00 0.00 0.00 0.00 0.00 0.00 0.00 0.00 0.00 0.00 0.00 0.00 0.00 0.00
0.00 0.01 0.00 0.00 0.01 0.00 0.00 0.01 0.01 0.01 0.00 0.00 0.00 0.00 0.00 0.00 0.00 0.00 0.00 0.00 0.00 0.00 0.00 0.00 0.00 0.00 0.00 0.00 0.00 0.00 0.00 0.00 0.00 0.00 0.00 0.00 0.00 0.00 0.00 0.00 0.00 0.00 0.00 0.00 0.00 0.00 0.00
0.00 0.00 0.00 0.00 0.00 0.01 0.00 0.00 0.01 0.01 0.01 0.00 0.00 0.00 0.00 0.00 0.00 0.00 0.00 0.00 0.00 0.00 0.00 0.00 0.00 0.00 0.00 0.00 0.00 0.00 0.00 0.00 0.00 0.00 0.00 0.00 0.00 0.00 0.00 0.00 0.00 0.00 0.00 0.00 0.00 0.00 0.00
0.00 0.01 0.00 0.00 0.01 0.00 0.00 0.00 0.00 0.01 0.01 0.00 0.00 0.00 0.00 0.00 0.00 0.00 0.00 0.00 0.00 0.00 0.00 0.00 0.00 0.00 0.00 0.00 0.00 0.00 0.00 0.00 0.00 0.00 0.00 0.00 0.00 0.00 0.00 0.00 0.00 0.00 0.00 0.00 0.00 0.00 0.00
0.00 0.00 0.00 0.00 0.00 0.00 0.00 0.00 0.00 0.00 0.01 0.00 0.01 0.00 0.00 0.00 0.00 0.00 0.00 0.00 0.00 0.00 0.00 0.00 0.00 0.00 0.00 0.00 0.00 0.00 0.00 0.00 0.00 0.00 0.00 0.00 0.00 0.00 0.00 0.00 0.00 0.00 0.00 0.00 0.00 0.00 0.00
0.00 0.00 0.00 0.00 0.00 0.00 0.00 0.00 0.00 0.00 0.00 0.00 0.01 0.00 0.00 0.00 0.00 0.00 0.00 0.00 0.00 0.00 0.00 0.00 0.00 0.00 0.00 0.00 0.00 0.00 0.00 0.00 0.00 0.00 0.00 0.00 0.00 0.00 0.00 0.00 0.00 0.00 0.00 0.00 0.00 0.00 0.00
0.00 0.00 0.00 0.00 0.00 0.00 0.00 0.00 0.00 0.00 0.00 0.00 0.00 0.00 0.00 0.00 0.00 0.00 0.00 0.00 0.00 0.00 0.00 0.00 0.00 0.00 0.00 0.00 0.00 0.00 0.00 0.00 0.00 0.00 0.00 0.00 0.00 0.00 0.00 0.00 0.00 0.00 0.00 0.00 0.00 0.00 0.00
0.00 0.00 0.00 0.00 0.00 0.01 0.00 0.00 0.00 0.00 0.00 0.00 0.00 0.00 0.00 0.00 0.00 0.00 0.00 0.00 0.00 0.00 0.00 0.00 0.00 0.00 0.00 0.00 0.00 0.00 0.00 0.00 0.00 0.00 0.00 0.00 0.00 0.00 0.00 0.00 0.00 0.00 0.00 0.00 0.00 0.00 0.00
0.00 0.00 0.00 0.00 0.00 0.00 0.00 0.00 0.00 0.00 0.00 0.00 0.00 0.00 0.00 0.00 0.00 0.00 0.00 0.00 0.00 0.00 0.00 0.00 0.00 0.00 0.00 0.00 0.00 0.00 0.00 0.00 0.00 0.00 0.00 0.00 0.00 0.00 0.00 0.00 0.00 0.00 0.00 0.00 0.00 0.00 0.00
0.00 0.00 0.00 0.00 0.00 0.00 0.00 0.00 0.00 0.00 0.00 0.00 0.00 0.00 0.00 0.00 0.00 0.00 0.00 0.00 0.00 0.00 0.00 0.00 0.00 0.00 0.00 0.00 0.00 0.00 0.00 0.00 0.00 0.00 0.00 0.00 0.00 0.00 0.00 0.00 0.00 0.00 0.00 0.00 0.00 0.00 0.00
0.00 0.00 0.00 0.00 0.00 0.00 0.00 0.00 0.00 0.00 0.00 0.00 0.00 0.00 0.00 0.00 0.00 0.00 0.00 0.00 0.00 0.00 0.00 0.00 0.00 0.00 0.00 0.00 0.00 0.00 0.00 0.00 0.00 0.00 0.00 0.00 0.00 0.00 0.00 0.00 0.00 0.00 0.00 0.00 0.00 0.00 0.00
0.00 0.00 0.00 0.00 0.00 0.00 0.00 0.00 0.00 0.00 0.00 0.00 0.00 0.00 0.00 0.00 0.00 0.00 0.00 0.00 0.00 0.00 0.00 0.00 0.00 0.00 0.00 0.00 0.00 0.00 0.00 0.00 0.00 0.00 0.00 0.00 0.00 0.00 0.00 0.00 0.00 0.00 0.00 0.00 0.00 0.00 0.00
0.00 0.00 0.00 0.00 0.00 0.00 0.00 0.00 0.00 0.00 0.00 0.00 0.00 0.00 0.00 0.00 0.00 0.00 0.00 0.00 0.00 0.00 0.00 0.00 0.00 0.00 0.00 0.00 0.00 0.00 0.00 0.00 0.00 0.00 0.00 0.00 0.00 0.00 0.00 0.00 0.00 0.00 0.00 0.00 0.00 0.00 0.00
0.00 0.00 0.00 0.00 0.00 0.00 0.00 0.00 0.00 0.00 0.00 0.00 0.00 0.00 0.00 0.00 0.00 0.00 0.00 0.00 0.00 0.00 0.00 0.00 0.00 0.00 0.00 0.00 0.00 0.00 0.00 0.00 0.00 0.00 0.00 0.00 0.00 0.00 0.00 0.00 0.00 0.00 0.00 0.00 0.00 0.00 0.00
0.00 0.00 0.01 0.01 0.00 0.00 0.00 0.00 0.00 0.00 0.00 0.00 0.00 0.00 0.00 0.00 0.00 0.00 0.00 0.00 0.00 0.00 0.00 0.00 0.00 0.00 0.00 0.00 0.00 0.00 0.00 0.00 0.00 0.00 0.00 0.00 0.00 0.00 0.00 0.00 0.00 0.00 0.00 0.00 0.00 0.00 0.00
0.00 0.01 0.00 0.00 0.00 0.01 0.00 0.00 0.00 0.00 0.00 0.00 0.00 0.00 0.00 0.00 0.00 0.00 0.00 0.00 0.00 0.00 0.00 0.00 0.00 0.00 0.00 0.00 0.00 0.00 0.00 0.00 0.00 0.00 0.00 0.00 0.00 0.00 0.00 0.00 0.00 0.00 0.00 0.00 0.00 0.00 0.00
0.00 0.00 0.00 0.00 0.00 0.00 0.00 0.00 0.00 0.00 0.00 0.00 0.00 0.00 0.00 0.00 0.00 0.00 0.00 0.00 0.00 0.00 0.00 0.00 0.00 0.00 0.00 0.00 0.00 0.00 0.00 0.00 0.00 0.00 0.01 0.00 0.00 0.00 0.00 0.00 0.00 0.00 0.00 0.00 0.00 0.00 0.00
0.01 0.01 0.01 0.01 0.03 0.03 0.03 0.03 0.03 0.05 0.04 0.02 0.03 0.01 0.00 0.00 0.00 0.00 0.00 0.00 0.00 0.00 0.00 0.00 0.00 0.00 0.00 0.03 0.02 0.00 0.01 0.03 0.02 0.00 0.01 0.01 0.01 0.00 0.00 0.00 0.00 0.00 0.00 0.00 0.00 0.00 0.00
0.07 0.08 0.08 0.08 0.09 0.13 0.16 0.17 0.19 0.25 0.22 0.08 0.02 0.01 0.01 0.01 0.00 0.00 0.00 0.00 0.00 0.00 0.00 0.00 0.00 0.00 0.06 0.07 0.01 0.07 0.15 0.09 0.03 0.01 0.04 0.04 0.02 0.01 0.01 0.00 0.00 0.00 0.00 0.00 0.00 0.00 0.00
0.10 0.09 0.08 0.06 0.04 0.05 0.07 0.11 0.21 0.44 0.51 0.12 0.01 0.00 0.03 0.07 0.01 0.00 0.00 0.00 0.00 0.00 0.00 0.00 0.00 0.05 0.08 0.01 0.01 0.04 0.10 0.11 0.07 0.03 0.05 0.07 0.04 0.06 0.05 0.00 0.00 0.00 0.00 0.00 0.00 0.00 0.00
0.01 0.01 0.01 0.01 0.01 0.02 0.04 0.06 0.09 0.26 0.46 0.12 0.05 0.03 0.15 0.11 0.02 0.00 0.00 0.00 0.00 0.00 0.00 0.00 0.00 0.04 0.01 0.00 0.02 0.04 0.04 0.05 0.08 0.06 0.02 0.08 0.11 0.13 0.07 0.04 0.03 0.00 0.00 0.00 0.00 0.00 0.00
0.00 0.00 0.00 0.00 0.00 0.00 0.01 0.01 0.03 0.06 0.23 0.11 0.02 0.07 0.11 0.10 0.02 0.01 0.00 0.00 0.00 0.00 0.00 0.00 0.00 0.00 0.00 0.03 0.07 0.06 0.02 0.01 0.01 0.01 0.01 0.02 0.08 0.11 0.08 0.04 0.01 0.00 0.00 0.00 0.00 0.00 0.00
0.00 0.00 0.00 0.00 0.00 0.00 0.00 0.00 0.00 0.01 0.03 0.11 0.12 0.07 0.12 0.16 0.04 0.00 0.00 0.00 0.00 0.00 0.01 0.00 0.00 0.00 0.00 0.05 0.11 0.07 0.01 0.00 0.00 0.00 0.01 0.04 0.07 0.11 0.08 0.06 0.01 0.00 0.00 0.00 0.00 0.00 0.00
0.01 0.01 0.01 0.01 0.01 0.00 0.00 0.00 0.01 0.01 0.01 0.02 0.05 0.14 0.22 0.23 0.06 0.00 0.01 0.01 0.01 0.02 0.04 0.01 0.00 0.01 0.02 0.08 0.10 0.04 0.01 0.00 0.00 0.00 0.00 0.01 0.05 0.09 0.02 0.07 0.04 0.00 0.00 0.00 0.00 0.00 0.00
0.01 0.01 0.01 0.01 0.01 0.01 0.01 0.01 0.01 0.01 0.01 0.02 0.01 0.04 0.20 0.28 0.09 0.00 0.00 0.00 0.02 0.05 0.05 0.02 0.08 0.07 0.06 0.09 0.06 0.01 0.01 0.00 0.00 0.00 0.00 0.00 0.01 0.03 0.03 0.08 0.04 0.00 0.00 0.00 0.00 0.00 0.00
0.01 0.01 0.01 0.01 0.01 0.01 0.01 0.01 0.01 0.01 0.02 0.02 0.01 0.00 0.06 0.18 0.15 0.02 0.00 0.00 0.00 0.00 0.03 0.11 0.12 0.01 0.02 0.06 0.03 0.02 0.05 0.03 0.00 0.00 0.00 0.00 0.00 0.00 0.01 0.01 0.00 0.00 0.00 0.00 0.01 0.00 0.00
MSLP
1022.96 1022.86 1022.66 1022.62 1022.57 1022.46 1022.36 1022.39 1022.46 1022.33 1022.38 1022.42 1022.47 1022.55 1022.63 1022.63 1022.65 1022.71 1022.80 1022.89 1022.93 1022.96 1023.06 1023.09 1023.16 1023.09 1022.88 1022.99 1024.00 1024.44 1024.49 1024.43 1024.40 1024.35 1024.08 1023.84 1023.59 1023.92 1024.38 1025.24 1025.52 1025.44 1025.89 1025.99 1025.98 1025.88 1025.88
1023.25 1023.05 1022.82 1022.77 1022.71 1022.59 1022.52 1022.58 1022.51 1022.50 1022.51 1022.49 1022.49 1022.57 1022.63 1022.63 1022.68 1022.75 1022.80 1022.91 1022.95 1023.05 1023.12 1023.15 1023.29 1023.20 1023.01 1023.61 1024.63 1024.63 1024.73 1024.70 1024.76 1024.64 1024.55 1024.26 1024.47 1024.69 1025.04 1025.65 1025.82 1026.22 1026.21 1025.95 1025.95 1025.83 1025.74
1023.25 1023.18 1022.98 1022.85 1022.76 1022.74 1022.72 1022.64 1022.64 1022.61 1022.58 1022.56 1022.60 1022.66 1022.66 1022.63 1022.65 1022.75 1022.84 1022.93 1023.04 1023.16 1023.19 1023.25 1023.42 1023.15 1023.30 1024.53 1024.69 1024.77 1024.90 1025.15 1025.30 1025.06 1024.92 1025.11 1025.05 1024.82 1025.66 1026.02 1026.47 1026.36 1025.87 1025.48 1025.59 1025.78 1025.65
1023.29 1023.15 1023.09 1023.06 1022.92 1022.88 1022.87 1022.83 1022.81 1022.75 1022.72 1022.75 1022.71 1022.70 1022.66 1022.59 1022.58 1022.65 1022.80 1022.99 1023.10 1023.28 1023.30 1023.44 1023.52 1023.21 1024.04 1024.99 1024.81 1024.92 1025.05 1025.35 1025.55 1025.46 1025.42 1025.53 1025.40 1025.61 1025.99 1026.62 1026.38 1025.97 1025.73 1024.91 1025.07 1025.55 1025.60
1023.26 1023.17 1023.13 1023.14 1023.09 1023.09 1022.94 1022.98 1022.95 1022.89 1022.88 1022.95 1022.84 1022.77 1022.73 1022.64 1022.54 1022.60 1022.76 1022.96 1023.21 1023.35 1023.50 1023.74 1023.59 1023.42 1024.45 1025.09 1024.91 1025.10 1025.18 1025.41 1025.78 1025.86 1025.81 1025.86 1025.84 1026.18 1026.57 1026.25 1025.94 1025.78 1025.02 1024.93 1024.66 1025.29 1025.41
1023.28 1023.20 1023.16 1023.14 1023.22 1023.23 1023.15 1023.04 1023.02 1022.92 1022.94 1023.02 1022.84 1022.84 1022.79 1022.68 1022.57 1022.70 1022.86 1023.04 1023.41 1023.63 1023.88 1023.74 1023.81 1024.14 1025.13 1024.43 1024.78 1025.21 1025.63 1025.72 1025.77 1025.91 1025.94 1025.90 1026.02 1026.14 1026.32 1026.18 1025.61 1025.21 1025.17 1024.99 1024.83 1024.92 1025.09
1023.31 1023.20 1023.12 1023.21 1023.23 1023.29 1023.26 1023.23 1023.07 1022.93 1022.85 1022.81 1022.69 1022.75 1022.76 1022.73 1022.71 1022.71 1022.92 1023.31 1023.88 1024.18 1023.87 1023.38 1023.42 1023.61 1024.10 1024.67 1024.89 1025.29 1025.62 1025.80 1025.81 1025.72 1025.54 1026.26 1026.20 1025.58 1025.46 1025.89 1026.12 1025.97 1025.80 1025.31 1024.71 1025.28 1025.26
1023.39 1023.26 1023.23 1023.21 1023.20 1023.27 1023.28 1023.16 1023.10 1022.98 1022.82 1022.71 1022.45 1022.48 1022.66 1022.69 1022.82 1023.11 1023.01 1022.98 1023.43 1023.92 1023.67 1023.79 1023.80 1023.87 1024.13 1024.25 1024.74 1025.30 1025.70 1025.65 1025.58 1025.29 1025.98 1026.39 1025.67 1025.52 1025.88 1026.43 1026.65 1026.54 1026.18 1025.51 1025.05 1025.61 1025.50
1023.40 1023.30 1023.26 1023.31 1023.29 1023.22 1023.18 1023.14 1023.05 1022.95 1022.75 1022.59 1022.38 1022.29 1022.56 1022.68 1022.96 1023.33 1023.32 1023.50 1023.78 1023.90 1023.52 1023.73 1023.67 1023.69 1023.97 1024.32 1024.23 1024.75 1025.39 1025.37 1025.24 1025.38 1025.55 1025.63 1025.75 1026.07 1026.32 1026.74 1027.04 1026.67 1026.40 1026.15 1026.37 1025.78 1024.67
1023.61 1023.45 1023.22 1023.18 1023.17 1023.12 1023.06 1023.01 1022.92 1022.84 1022.71 1022.54 1022.33 1022.33 1022.43 1022.76 1023.33 1023.48 1023.41 1023.60 1023.90 1023.95 1023.35 1023.44 1023.55 1023.62 1023.97 1023.99 1024.44 1024.94 1025.27 1025.35 1025.42 1025.23 1025.58 1025.52 1026.05 1026.27 1026.61 1026.81 1027.18 1027.13 1026.97 1027.15 1026.95 1026.62 1025.27
1023.51 1023.37 1023.24 1023.12 1023.00 1022.97 1022.98 1022.92 1022.91 1022.83 1022.67 1022.50 1022.29 1022.31 1022.43 1022.63 1023.01 1023.41 1023.58 1023.73 1023.99 1023.95 1023.38 1023.06 1023.52 1023.99 1023.87 1024.01 1024.71 1025.34 1025.71 1025.36 1025.07 1025.26 1025.81 1025.09 1025.92 1026.34 1026.70 1026.90 1027.50 1027.70 1027.98 1027.95 1027.68 1027.05 1026.71
1023.20 1023.14 1023.00 1022.89 1022.84 1022.81 1022.80 1022.88 1022.88 1022.82 1022.70 1022.51 1022.31 1022.36 1022.64 1022.99 1023.04 1023.47 1023.64 1023.86 1023.91 1023.49 1022.02 1022.42 1023.06 1023.45 1023.73 1024.11 1024.66 1025.34 1025.52 1025.67 1025.88 1025.53 1025.58 1025.46 1026.39 1026.47 1026.50 1027.44 1027.90 1028.54 1028.62 1028.56 1028.13 1027.28 1026.31
1022.98 1022.91 1022.80 1022.69 1022.64 1022.64 1022.59 1022.59 1022.66 1022.68 1022.61 1022.47 1022.30 1022.30 1022.66 1022.72 1022.85 1023.33 1023.50 1023.32 1022.99 1021.76 1020.96 1021.70 1022.21 1022.84 1023.16 1023.69 1024.30 1024.71 1025.19 1025.48 1025.32 1025.48 1024.97 1025.45 1025.82 1026.52 1026.98 1027.63 1028.42 1028.73 1028.53 1027.80 1027.28 1026.53 1024.90
1022.57 1022.56 1022.48 1022.41 1022.35 1022.30 1022.38 1022.44 1022.32 1022.46 1022.51 1022.44 1022.38 1022.45 1022.87 1022.99 1023.09 1023.31 1023.21 1022.68 1021.55 1019.34 1019.83 1020.84 1021.51 1022.44 1022.79 1023.16 1023.90 1024.44 1024.85 1024.76 1024.80 1025.04 1024.92 1024.58 1025.46 1026.39 1027.02 1027.61 1027.99 1029.03 1028.87 1027.92 1026.79 1025.84 1024.42
1021.94 1021.93 1021.91 1021.93 1021.95 1021.93 1021.89 1022.08 1022.20 1022.27 1022.40 1022.29 1022.46 1022.75 1022.87 1023.30 1023.45 1023.42 1022.83 1021.60 1019.16 1018.80 1019.19 1020.19 1021.46 1021.60 1022.16 1022.95 1023.50 1024.02 1024.02 1023.79 1023.57 1024.16 1024.43 1024.69 1025.54 1026.88 1027.83 1028.49 1028.99 1029.90 1029.53 1028.82 1027.61 1027.48 1025.76
1021.31 1021.27 1021.24 1021.25 1021.28 1021.32 1021.39 1021.57 1021.84 1021.93 1022.16 1022.22 1022.28 1022.59 1023.09 1023.59 1023.62 1023.20 1022.46 1020.62 1019.30 1019.03 1019.52 1020.01 1020.04 1020.33 1020.95 1022.07 1023.02 1023.47 1022.96 1022.60 1023.10 1023.93 1024.46 1024.69 1025.65 1026.85 1028.52 1029.01 1029.71 1029.43 1029.17 1029.02 1028.22 1026.55 1023.99
1020.59 1020.61 1020.59 1020.55 1020.57 1020.68 1020.81 1021.08 1021.30 1021.58 1021.75 1022.11 1022.31 1022.60 1023.60 1023.73 1023.54 1023.03 1021.78 1020.49 1019.49 1019.48 1019.69 1019.86 1019.72 1020.08 1020.37 1021.20 1021.91 1022.42 1022.00 1022.23 1022.73 1024.37 1024.90 1025.23 1025.70 1027.35 1028.32 1028.07 1028.05 1029.57 1029.02 1028.82 1028.19 1026.48 1024.10
1019.82 1019.82 1019.83 1019.85 1019.89 1020.04 1020.23 1020.42 1020.65 1021.00 1021.44 1021.91 1022.19 1022.65 1023.91 1023.90 1023.39 1022.21 1021.05 1020.27 1019.68 1019.59 1020.09 1019.99 1020.07 1019.80 1020.24 1020.68 1021.36 1021.77 1021.35 1021.25 1022.27 1023.35 1024.33 1024.80 1025.14 1025.58 1026.26 1027.62 1028.24 1027.75 1027.27 1027.33 1026.67 1025.79 1024.58
1018.72 1018.82 1018.96 1019.06 1019.19 1019.34 1019.47 1019.71 1020.03 1020.23 1020.50 1021.15 1021.86 1022.91 1023.91 1023.77 1022.32 1021.49 1020.81 1020.19 1019.78 1019.69 1019.70 1019.80 1019.76 1019.95 1020.29 1020.59 1021.22 1020.80 1021.28 1021.42 1022.13 1022.72 1022.93 1024.20 1024.57 1024.82 1025.50 1027.33 1027.77 1027.29 1026.42 1026.00 1025.82 1025.38 1022.85
1017.63 1017.68 1017.82 1017.99 1018.15 1018.37 1018.62 1018.83 1018.97 1019.27 1019.71 1020.49 1021.72 1022.44 1023.38 1023.33 1021.95 1020.96 1020.36 1019.75 1019.42 1019.07 1019.18 1019.40 1019.62 1020.09 1020.60 1020.68 1020.57 1020.46 1021.01 1021.70 1022.31 1022.55 1022.87 1023.33 1023.32 1022.27 1021.22 1021.76 1023.70 1025.19 1024.72 1025.01 1024.92 1023.77 1021.14
1016.40 1016.48 1016.55 1016.64 1016.77 1016.98 1017.18 1017.43 1017.71 1018.11 1018.58 1019.68 1020.61 1020.43 1020.28 1021.24 1020.55 1020.03 1019.72 1019.04 1018.47 1018.48 1018.91 1019.19 1019.43 1019.22 1019.73 1020.34 1020.28 1020.08 1020.75 1021.83 1022.46 1022.44 1022.84 1023.27 1022.14 1021.96 1020.79 1021.51 1022.56 1022.42 1022.63 1023.36 1023.04 1021.29 1020.85
1015.20 1015.19 1015.25 1015.35 1015.45 1015.65 1015.79 1016.08 1016.43 1016.99 1017.79 1018.56 1019.05 1019.37 1019.78 1019.24 1019.06 1019.14 1019.25 1017.94 1017.51 1017.55 1017.89 1018.06 1018.17 1017.69 1019.09 1018.97 1018.22 1018.40 1019.61 1020.56 1020.52 1021.78 1022.51 1022.63 1021.20 1021.25 1020.24 1020.92 1021.25 1020.71 1020.56 1020.75 1020.67 1020.02 1018.73
1014.92 1014.75 1014.62 1014.38 1014.34 1014.50 1014.54 1014.72 1014.98 1015.46 1016.57 1017.33 1017.69 1017.91 1018.28 1017.83 1017.80 1017.90 1016.73 1015.95 1015.87 1016.50 1016.09 1015.72 1016.13 1017.07 1017.54 1016.57 1016.95 1016.80 1017.76 1018.49 1019.04 1019.80 1020.99 1021.63 1021.60 1021.41 1019.74 1020.59 1021.13 1019.50 1016.42 1016.62 1017.66 1016.47 1015.72
1014.66 1014.58 1014.33 1014.19 1014.02 1013.93 1013.83 1013.76 1013.78 1014.06 1014.32 1015.19 1015.78 1016.63 1017.39 1016.44 1016.12 1015.24 1014.94 1015.08 1014.77 1014.85 1014.55 1014.47 1015.03 1015.89 1015.65 1016.11 1016.95 1017.26 1017.42 1017.61 1017.95 1018.14 1018.68 1019.48 1020.25 1020.52 1019.56 1020.36 1018.87 1013.98 1014.76 1014.88 1015.23 1013.88 1014.72
1014.10 1014.14 1013.99 1013.78 1013.67 1013.67 1013.56 1013.44 1013.30 1013.28 1013.29 1013.51 1014.37 1015.06 1015.52 1014.60 1014.06 1013.54 1013.80 1013.39 1013.43 1013.42 1013.19 1013.36 1013.21 1013.13 1014.83 1016.30 1016.67 1016.48 1016.66 1016.82 1015.96 1016.14 1016.90 1017.41 1018.55 1018.53 1018.36 1017.21 1015.33 1012.85 1014.72 1015.28 1015.22 1012.81 1012.83
1013.66 1013.47 1013.36 1013.37 1013.22 1013.13 1013.15 1013.19 1013.15 1013.03 1013.00 1013.04 1012.95 1013.26 1013.42 1013.44 1011.11 1012.15 1012.32 1012.34 1012.28 1012.22 1012.30 1011.57 1012.17 1012.68 1014.50 1015.25 1015.42 1014.63 1013.98 1013.89 1014.44 1015.17 1015.92 1016.53 1016.79 1017.18 1016.52 1015.73 1014.33 1011.46 1013.95 1014.65 1014.54 1012.74 1010.81
1012.99 1012.87 1012.73 1012.67 1012.70 1012.60 1012.52 1012.57 1012.50 1012.49 1012.43 1012.48 1011.67 1011.92 1012.04 1011.47 1009.63 1010.55 1010.48 1010.59 1011.26 1011.25 1011.04 1011.30 1012.02 1013.07 1013.55 1013.69 1013.56 1012.81 1011.91 1011.71 1012.06 1012.69 1014.55 1015.07 1015.34 1014.34 1013.67 1013.63 1013.08 1012.13 1013.74 1015.04 1014.61 1011.30 1010.93
1012.36 1012.31 1012.16 1012.07 1011.91 1011.91 1011.87 1011.84 1011.81 1011.75 1011.71 1011.88 1010.79 1010.99 1011.39 1010.36 1008.91 1009.36 1009.25 1009.06 1009.56 1009.83 1010.11 1010.81 1012.27 1012.23 1012.80 1012.07 1011.36 1010.56 1010.34 1009.57 1009.76 1009.35 1010.61 1011.19 1012.37 1012.32 1012.97 1012.54 1011.77 1011.99 1014.74 1014.18 1010.84 1011.52 1011.84
1011.53 1011.50 1011.39 1011.32 1011.25 1011.17 1011.11 1011.08 1011.01 1010.91 1010.94 1011.02 1010.37 1010.65 1010.65 1010.20 1008.53 1008.12 1007.95 1007.67 1007.70 1008.37 1009.05 1009.68 1009.45 1009.66 1009.89 1010.28 1010.11 1009.32 1009.26 1008.75 1008.00 1008.05 1009.39 1009.56 1008.15 1008.66 1009.38 1008.11 1008.31 1009.66 1009.34 1010.20 1011.17 1011.40 1012.67
Thickness
5568 5570 5573 5575 5578 5581 5585 5587 5589 5591 5592 5593 5594 5594 5596 5597 5598 5599 5601 5603 5606 5608 5609 5610 5611 5613 5616 5615 5608 5604 5604 5604 5603 5604 5604 5605 5607 5603 5602 5586 5581 5582 5572 5568 5565 5563 5558
5566 5569 5572 5574 5576 5579 5582 5583 5586 5587 5588 5589 5590 5590 5591 5593 5594 5596 5597 5599 5602 5603 5605 5606 5606 5608 5611 5612 5598 5598 5597 5597 5596 5596 5595 5597 5593 5589 5584 5576 5576 5565 5560 5562 5558 5558 5553
5565 5567 5570 5572 5574 5576 5577 5579 5581 5582 5583 5584 5585 5585 5587 5589 5590 5592 5593 5595 5597 5598 5599 5600 5600 5604 5605 5598 5592 5592 5591 5589 5587 5587 5587 5583 5582 5585 5573 5568 5558 5554 5559 5560 5555 5551 5547
5564 5566 5568 5569 5571 5571 5572 5573 5574 5576 5577 5578 5579 5581 5582 5585 5586 5588 5589 5590 5591 5593 5594 5594 5595 5599 5595 5586 5586 5586 5583 5581 5579 5578 5577 5574 5573 5568 5564 5554 5552 5554 5554 5574 5556 5544 5540
5563 5565 5566 5566 5567 5567 5568 5569 5569 5570 5571 5572 5574 5576 5577 5580 5582 5584 5585 5586 5586 5588 5588 5588 5591 5594 5589 5580 5581 5579 5576 5574 5570 5568 5567 5564 5562 5556 5550 5553 5561 5553 5577 5550 5557 5538 5533
5563 5564 5564 5564 5563 5563 5564 5565 5566 5567 5568 5567 5570 5571 5573 5576 5579 5580 5581 5581 5580 5581 5581 5583 5583 5587 5571 5581 5576 5572 5567 5565 5564 5561 5559 5557 5554 5551 5544 5548 5577 5571 5557 5547 5543 5541 5528
5561 5562 5563 5562 5562 5561 5562 5562 5564 5565 5566 5567 5568 5569 5570 5572 5575 5576 5577 5577 5578 5576 5577 5589 5586 5582 5576 5571 5569 5565 5561 5558 5557 5557 5563 5541 5548 5563 5560 5542 5533 5530 5527 5533 5542 5522 5511
5559 5560 5561 5561 5561 5560 5559 5560 5561 5562 5564 5566 5568 5569 5569 5570 5570 5571 5573 5577 5577 5574 5582 5571 5571 5572 5570 5569 5564 5557 5553 5556 5554 5562 5537 5541 5554 5545 5534 5521 5515 5512 5514 5527 5528 5505 5502
5556 5558 5558 5558 5558 5558 5557 5557 5558 5559 5562 5564 5566 5568 5567 5567 5567 5565 5567 5568 5565 5565 5577 5567 5567 5568 5565 5562 5566 5557 5549 5546 5550 5544 5540 5546 5541 5523 5520 5510 5500 5511 5507 5509 5495 5499 5511
5551 5553 5555 5556 5556 5557 5557 5557 5557 5558 5559 5561 5563 5564 5564 5563 5562 5560 5563 5560 5558 5557 5580 5573 5561 5563 5557 5557 5556 5545 5540 5541 5536 5542 5528 5535 5514 5514 5508 5504 5497 5500 5493 5483 5480 5479 5511
5547 5549 5550 5552 5553 5554 5554 5555 5554 5554 5555 5557 5559 5560 5559 5558 5557 5557 5556 5553 5550 5552 5587 5560 5552 5548 5547 5551 5540 5532 5527 5529 5535 5528 5516 5543 5507 5503 5497 5502 5488 5488 5469 5460 5454 5461 5442
5544 5545 5546 5547 5548 5549 5549 5549 5549 5549 5550 5552 5554 5554 5552 5550 5550 5547 5545 5543 5543 5567 5583 5555 5543 5541 5539 5535 5529 5520 5520 5516 5508 5510 5505 5512 5491 5494 5502 5478 5474 5458 5447 5431 5429 5439 5459
5539 5540 5541 5542 5542 5543 5543 5543 5543 5544 5544 5545 5546 5546 5544 5543 5548 5539 5537 5540 5559 5572 5562 5558 5545 5534 5536 5531 5521 5516 5511 5505 5518 5512 5521 5498 5490 5479 5479 5473 5457 5445 5456 5493 5489 5469 5514
5535 5535 5536 5536 5536 5537 5537 5536 5537 5536 5536 5537 5537 5536 5533 5532 5532 5529 5529 5543 5552 5582 5567 5536 5532 5522 5532 5525 5516 5506 5502 5509 5500 5490 5497 5529 5527 5471 5467 5464 5467 5441 5445 5484 5486 5507 5513
5532 5531 5531 5531 5531 5531 5531 5530 5529 5528 5527 5528 5527 5525 5524 5520 5518 5517 5527 5541 5571 5570 5554 5534 5515 5527 5525 5508 5505 5496 5501 5505 5505 5490 5507 5493 5490 5449 5439 5431 5432 5418 5431 5409 5423 5372 5406
5527 5527 5527 5527 5526 5526 5525 5523 5522 5520 5519 5519 5519 5518 5515 5507 5505 5508 5519 5539 5550 5541 5524 5523 5547 5538 5536 5509 5494 5484 5497 5497 5494 5472 5454 5473 5482 5442 5417 5419 5405 5414 5407 5413 5410 5421 5438
5522 5522 5521 5521 5521 5520 5518 5516 5514 5512 5509 5508 5507 5513 5500 5495 5493 5501 5512 5524 5528 5519 5518 5524 5531 5516 5522 5496 5496 5486 5505 5491 5479 5448 5445 5437 5444 5424 5412 5419 5427 5392 5408 5388 5389 5402 5430
5515 5515 5515 5514 5514 5513 5510 5508 5506 5503 5499 5496 5495 5510 5483 5480 5490 5499 5506 5506 5509 5509 5497 5501 5501 5512 5503 5497 5481 5481 5495 5502 5463 5444 5444 5434 5438 5442 5430 5384 5382 5397 5415 5401 5427 5408 5371
5509 5508 5507 5506 5505 5503 5502 5500 5497 5495 5492 5488 5483 5474 5467 5468 5491 5490 5487 5490 5492 5493 5495 5491 5492 5488 5479 5480 5469 5476 5466 5467 5449 5444 5437 5423 5426 5435 5425 5386 5369 5379 5389 5389 5369 5366 5392
5502 5501 5500 5498 5498 5495 5494 5492 5490 5487 5484 5478 5465 5468 5455 5453 5463 5473 5476 5488 5492 5486 5486 5479 5475 5466 5455 5454 5460 5462 5453 5441 5434 5435 5433 5421 5414 5452 5509 5486 5408 5377 5382 5372 5376 5383 5409
5496 5496 5494 5493 5491 5492 5490 5488 5484 5480 5476 5470 5461 5467 5470 5451 5460 5463 5468 5478 5483 5482 5467 5464 5459 5463 5450 5443 5441 5446 5439 5419 5411 5417 5418 5405 5410 5408 5430 5427 5399 5411 5396 5364 5364 5382 5376
5489 5490 5490 5488 5487 5487 5485 5483 5478 5470 5462 5459 5457 5457 5446 5462 5457 5452 5453 5471 5473 5473 5457 5460 5456 5473 5437 5445 5456 5464 5430 5424 5434 5407 5394 5389 5411 5394 5400 5401 5397 5402 5411 5387 5367 5376 5372
5474 5476 5478 5479 5478 5479 5479 5478 5475 5466 5454 5450 5450 5448 5443 5453 5451 5447 5463 5469 5466 5463 5472 5475 5459 5452 5433 5447 5448 5455 5441 5429 5424 5410 5395 5384 5381 5377 5404 5358 5349 5379 5415 5418 5387 5394 5385
5458 5460 5463 5464 5465 5466 5467 5468 5468 5463 5456 5448 5446 5437 5425 5446 5443 5457 5466 5461 5462 5461 5460 5467 5453 5435 5449 5436 5422 5419 5417 5417 5415 5413 5405 5386 5372 5369 5384 5346 5380 5461 5396 5409 5401 5410 5386
5442 5442 5445 5448 5449 5450 5452 5453 5453 5451 5447 5444 5439 5431 5421 5438 5446 5452 5451 5460 5460 5460 5459 5455 5462 5459 5430 5413 5414 5418 5406 5399 5414 5420 5403 5400 5371 5372 5369 5376 5400 5451 5384 5372 5363 5404 5387
5420 5424 5427 5427 5431 5432 5433 5434 5434 5433 5430 5425 5428 5426 5417 5418 5457 5449 5441 5443 5444 5446 5446 5458 5454 5444 5415 5406 5405 5417 5430 5427 5425 5398 5378 5380 5376 5365 5368 5358 5381 5470 5360 5337 5357 5383 5402
5399 5402 5406 5408 5410 5413 5415 5416 5418 5417 5415 5412 5423 5418 5411 5403 5451 5436 5433 5435 5429 5434 5437 5438 5430 5412 5408 5407 5404 5414 5419 5426 5421 5406 5364 5367 5361 5367 5375 5362 5369 5401 5342 5318 5367 5415 5359
5375 5378 5382 5385 5390 5392 5394 5397 5399 5401 5400 5394 5413 5406 5395 5387 5422 5427 5434 5431 5418 5420 5424 5417 5400 5397 5389 5399 5409 5418 5407 5415 5411 5441 5379 5383 5364 5362 5353 5352 5354 5347 5306 5353 5384 5329 5329
5352 5354 5357 5361 5366 5370 5372 5374 5377 5381 5381 5378 5391 5387 5380 5371 5395 5412 5419 5427 5423 5421 5410 5397 5410 5408 5403 5393 5392 5393 5392 5385 5410 5414 5364 5385 5407 5394 5377 5386 5374 5343 5371 5343 5324 5332 5307